Location: Chmeln�
(49.6483°N, 14.9871°E)
Time: 03:06:51
(UTC+00:00)

Cosmos 1626 - Pass Details

Date: 18 September 2020
Orbit: 490 x 495 km, 82.5° (Epoch: 24 October)

Event Time Altitude Azimuth Distance (km) Brightness Sun altitude
Rises 18:37:46 0° 1° (N) 2,591 6.0 -15.3°
Reaches altitude 10° 18:40:18 10° 19° (NNE) 1,702 4.9 -15.7°
Enters shadow 18:42:48 20° 60° (ENE) 1,185 3.7 -16.1°
